TimeCST,TemperatureF,Dew PointF,Humidity,Sea Level PressureIn,VisibilityMPH,Wind Direction,Wind SpeedMPH,Gust SpeedMPH,PrecipitationIn,Events,Conditions,WindDirDegrees,DateUTC
12:53 AM,36.0,28.9,76,30.43,8.0,NW,4.6,-,N/A,,Clear,320,2012-11-16 06:53:00
1:53 AM,34.0,28.9,82,30.44,10.0,NNW,5.8,-,N/A,,Clear,340,2012-11-16 07:53:00
2:53 AM,33.1,28.0,82,30.44,10.0,NW,3.5,-,N/A,,Clear,320,2012-11-16 08:53:00
3:53 AM,33.1,27.0,78,30.43,10.0,Calm,Calm,-,N/A,,Clear,0,2012-11-16 09:53:00
4:53 AM,30.9,26.1,82,30.42,10.0,Calm,Calm,-,N/A,,Clear,0,2012-11-16 10:53:00
5:53 AM,30.0,26.1,85,30.43,10.0,Calm,Calm,-,N/A,,Clear,0,2012-11-16 11:53:00
6:53 AM,28.0,24.1,85,30.45,8.0,Calm,Calm,-,N/A,,Clear,0,2012-11-16 12:53:00
7:53 AM,30.0,26.1,85,30.46,8.0,Calm,Calm,-,N/A,,Clear,0,2012-11-16 13:53:00
8:53 AM,36.0,28.9,76,30.47,8.0,Calm,Calm,-,N/A,,Clear,0,2012-11-16 14:53:00
9:53 AM,41.0,32.0,70,30.46,9.0,NE,3.5,-,N/A,,Clear,50,2012-11-16 15:53:00
10:53 AM,48.0,35.1,61,30.44,9.0,ESE,5.8,-,N/A,,Clear,120,2012-11-16 16:53:00
11:53 AM,53.1,36.0,52,30.42,10.0,ESE,6.9,-,N/A,,Clear,120,2012-11-16 17:53:00
12:53 PM,57.0,36.0,45,30.38,10.0,SE,6.9,-,N/A,,Clear,130,2012-11-16 18:53:00
1:53 PM,60.1,36.0,41,30.35,10.0,SSE,6.9,-,N/A,,Clear,150,2012-11-16 19:53:00
2:53 PM,62.1,33.1,34,30.33,10.0,South,9.2,-,N/A,,Clear,170,2012-11-16 20:53:00
3:53 PM,61.0,32.0,34,30.33,10.0,South,9.2,-,N/A,,Clear,170,2012-11-16 21:53:00
4:53 PM,55.9,32.0,40,30.33,10.0,South,8.1,-,N/A,,Clear,170,2012-11-16 22:53:00
5:53 PM,50.0,32.0,50,30.33,10.0,SSE,8.1,-,N/A,,Clear,150,2012-11-16 23:53:00
6:53 PM,46.9,32.0,56,30.33,10.0,SSE,9.2,-,N/A,,Clear,160,2012-11-17 00:53:00
7:53 PM,43.0,32.0,65,30.33,10.0,SSE,8.1,-,N/A,,Clear,160,2012-11-17 01:53:00
8:53 PM,41.0,32.0,70,30.33,10.0,South,6.9,-,N/A,,Clear,170,2012-11-17 02:53:00
9:53 PM,39.9,32.0,73,30.33,10.0,SSE,8.1,-,N/A,,Clear,150,2012-11-17 03:53:00
10:53 PM,37.9,30.0,73,30.32,10.0,South,6.9,-,N/A,,Clear,170,2012-11-17 04:53:00
11:53 PM,36.0,28.9,76,30.32,10.0,South,6.9,-,N/A,,Clear,170,2012-11-17 05:53:00